IW0HP-13 Weather Reports


time (UTC)temp
C
wind
direction
speed
KPH
gust
KPH
rain 1hr
cm
rain 24hr
cm
rain mn
cm
humidity
%
barometer
mb
20260507225258 20 0.0 0.0 0.00 0.00 0.00 51 1011.4
20260507223257 20 0.0 0.0 0.00 0.00 0.00 51 1011.4
20260507221257 20 0.0 0.0 0.00 0.00 0.00 52 1011.6
20260507215257 20 0.0 0.0 0.00 0.00 0.00 55 1011.7
20260507213257 20 0.0 0.0 0.00 0.00 0.00 57 1011.8
20260507211256 21 0.0 0.0 0.00 0.00 0.00 57 1011.9
20260507205256 21 0.0 0.0 0.00 0.00 0.00 56 1011.9
20260507203256 21 0.0 0.0 0.00 0.00 0.00 55 1012.1
20260507201256 21 0.0 0.0 0.00 0.00 0.00 54 1012.1
20260507195255 21 0.0 0.0 0.00 0.00 0.00 53 1012.1
20260507193255 21 0.0 0.0 0.00 0.00 0.00 52 1012.1
20260507191256 21 0.0 0.0 0.00 0.00 0.00 51 1012.0
20260507185255 21 0.0 0.0 0.00 0.00 0.00 50 1011.8
20260507183254 22 0.0 0.0 0.00 0.00 0.00 49 1011.8
20260507181254 22 0.0 0.0 0.00 0.00 0.00 47 1011.9
20260507175254 22 0.0 0.0 0.00 0.00 0.00 47 1011.9
20260507173254 23 0.0 0.0 0.00 0.00 0.00 45 1011.8
20260507171253 25 0.0 0.0 0.00 0.00 0.00 40 1011.7
20260507165253 25 0.0 0.0 0.00 0.00 0.00 34 1011.5
20260507163253 25 0.0 0.0 0.00 0.00 0.00 33 1011.5
20260507161253 25 0.0 0.0 0.00 0.00 0.00 33 1011.5
20260507155252 25 0.0 0.0 0.00 0.00 0.00 32 1011.5
20260507153252 25 0.0 0.0 0.00 0.00 0.00 31 1011.4
20260507151252 25 0.0 0.0 0.00 0.00 0.00 33 1011.6
20260507145251 24 0.0 0.0 0.00 0.00 0.00 34 1011.7
20260507143251 23 0.0 0.0 0.00 0.00 0.00 37 1011.8
20260507141251 23 0.0 0.0 0.00 0.00 0.00 38 1012.2
20260507135250 23 0.0 0.0 0.00 0.00 0.00 39 1012.6
20260507133250 23 0.0 0.0 0.00 0.00 0.00 40 1012.8
20260507131250 23 0.0 0.0 0.00 0.00 0.00 42 1013.2
20260507125250 22 0.0 0.0 0.00 0.00 0.00 43 1013.3
20260507123249 22 0.0 0.0 0.00 0.00 0.00 43 1013.4
20260507121249 22 0.0 0.0 0.00 0.00 0.00 44 1013.7
20260507115249 22 0.0 0.0 0.00 0.00 0.00 44 1013.6
20260507113248 22 0.0 0.0 0.00 0.00 0.00 44 1013.9
20260507111248 22 0.0 0.0 0.00 0.00 0.00 46 1014.1
20260507105248 22 0.0 0.0 0.00 0.00 0.00 47 1014.3
20260507103248 21 0.0 0.0 0.00 0.00 0.00 49 1014.5
20260507101248 21 0.0 0.0 0.00 0.00 0.00 48 1014.7
20260507095247 21 0.0 0.0 0.00 0.00 0.00 50 1014.8
20260507093247 21 0.0 0.0 0.00 0.00 0.00 49 1014.9
20260507091247 21 0.0 0.0 0.00 0.00 0.00 50 1014.7
20260507085246 20 0.0 0.0 0.00 0.00 0.00 52 1014.7
20260507083246 20 0.0 0.0 0.00 0.00 0.00 52 1014.8
20260507081246 20 0.0 0.0 0.00 0.00 0.00 53 1015.0
20260507075246 19 0.0 0.0 0.00 0.00 0.00 55 1015.2
20260507073246 19 0.0 0.0 0.00 0.00 0.00 56 1015.1
20260507071245 19 0.0 0.0 0.00 0.00 0.00 57 1015.2
20260507065245 18 0.0 0.0 0.00 0.00 0.00 59 1015.2
20260507063243 18 0.0 0.0 0.00 0.00 0.00 60 1015.1
20260507061243 18 0.0 0.0 0.00 0.00 0.00 60 1014.9
20260507055243 17 0.0 0.0 0.00 0.00 0.00 63 1014.9
20260507051243 17 0.0 0.0 0.00 0.00 0.00 66 1014.9
20260507045243 16 0.0 0.0 0.00 0.00 0.00 67 1014.8
20260507043242 16 0.0 0.0 0.00 0.00 0.00 67 1014.7
20260507041242 16 0.0 0.0 0.00 0.00 0.00 67 1014.9
20260507035241 16 0.0 0.0 0.00 0.00 0.00 68 1014.7
20260507033241 16 0.0 0.0 0.00 0.00 0.00 67 1014.8
20260507031241 16 0.0 0.0 0.00 0.00 0.00 67 1014.7
20260507025241 16 0.0 0.0 0.00 0.00 0.00 68 1014.6
20260507023240 16 0.0 0.0 0.00 0.00 0.00 68 1014.8
20260507021240 16 0.0 0.0 0.00 0.00 0.00 68 1014.8
20260507015240 17 0.0 0.0 0.00 0.00 0.00 68 1014.8
20260507013240 17 0.0 0.0 0.00 0.00 0.00 68 1014.6
20260507011239 17 0.0 0.0 0.00 0.00 0.00 67 1014.6
20260507005239 17 0.0 0.0 0.00 0.00 0.00 66 1014.7
20260507003239 17 0.0 0.0 0.00 0.00 0.00 64 1014.8
20260507001239 17 0.0 0.0 0.00 0.00 0.00 61 1014.7
20260506235238 18 0.0 0.0 0.00 0.00 0.00 61 1014.7
20260506233238 18 0.0 0.0 0.00 0.00 0.00 63 1014.7
20260506231238 18 0.0 0.0 0.00 0.00 0.00 62 1014.4